SCP
0 0 0 0 0 0 0 0 0 0 0 0 0 0 0 0 0 0 0 0 0 0 1 1 1 1 1 1 1 1 1 1 1 1 1 2 3 4 5 5 3 2 1 0
0 0 0 0 0 0 0 0 0 0 0 0 0 0 0 0 0 0 0 0 0 0 0 0 0 1 1 1 1 1 1 1 1 1 1 2 3 4 5 5 3 1 1 0
0 0 0 0 0 0 0 0 0 0 0 0 0 0 0 0 0 0 0 0 0 0 0 0 0 0 1 1 1 1 1 1 1 1 1 2 2 3 4 4 2 1 0 0
0 0 0 0 0 0 0 0 0 0 0 0 0 0 0 0 0 0 0 0 0 0 0 0 0 0 1 1 1 1 1 1 1 1 1 1 1 2 2 2 1 0 0 0
0 0 0 0 0 0 0 0 0 0 0 0 0 0 0 0 0 0 0 0 0 0 0 0 0 0 1 1 1 1 1 2 2 1 1 1 0 1 1 1 0 0 0 0
0 0 0 0 0 0 0 0 0 0 0 0 0 0 0 0 0 0 0 0 0 0 0 0 0 0 0 1 1 1 1 2 2 2 1 0 0 0 0 0 0 0 0 0
0 0 0 0 0 0 0 0 0 0 0 0 0 0 0 0 0 0 0 0 0 0 0 0 0 1 1 1 1 0 0 1 2 2 1 1 0 0 0 0 0 0 0 0
0 0 0 0 0 0 0 0 0 0 0 0 0 0 0 0 0 0 0 0 0 0 0 0 1 1 1 1 1 0 0 1 2 2 2 1 0 0 0 0 0 0 0 0
0 0 0 0 0 0 0 0 0 0 0 0 0 0 0 0 0 0 0 0 0 0 0 1 1 1 1 1 0 0 0 1 2 2 2 1 0 0 0 0 0 0 0 0
0 0 0 0 0 0 0 0 0 0 0 0 0 0 0 0 0 0 0 0 0 0 0 1 1 0 0 0 0 0 0 1 1 2 2 1 0 0 0 0 0 0 0 0
0 0 0 0 0 0 0 0 0 0 0 0 0 0 0 0 0 0 0 0 0 0 0 0 0 0 0 0 0 0 0 1 1 2 2 1 1 1 1 0 0 0 0 0
0 0 0 0 0 0 0 0 0 0 0 0 0 0 0 0 0 0 0 0 0 0 0 0 0 0 0 0 0 0 0 0 1 1 1 1 1 1 1 1 0 0 0 0
0 0 0 0 0 0 0 0 0 0 0 0 0 0 0 0 0 0 0 0 0 0 0 0 0 0 0 0 0 0 0 0 0 1 1 1 1 1 1 1 1 0 0 0
0 0 0 0 0 0 0 0 0 0 0 0 0 0 0 0 0 0 0 0 0 0 0 0 0 0 0 0 0 0 0 0 0 0 0 0 0 1 1 1 1 0 0 0
0 0 0 0 0 0 0 0 0 0 0 0 0 0 0 0 0 0 0 0 0 0 0 0 0 0 0 0 0 0 0 0 0 0 0 0 0 0 1 1 1 0 0 0
0 0 0 0 0 0 0 0 0 0 0 0 0 0 0 0 0 0 0 0 0 0 0 0 0 0 0 0 0 0 0 0 0 0 0 0 0 0 0 0 1 0 0 0
0 0 0 0 0 0 0 0 0 0 0 0 0 0 0 0 0 0 0 0 0 0 0 0 0 0 0 0 0 0 0 0 0 0 0 0 0 0 0 0 0 0 0 0
0 0 0 0 0 0 0 0 0 0 0 0 0 0 0 0 0 0 0 0 0 0 0 0 0 0 0 0 0 0 0 0 0 0 0 0 0 0 0 0 0 0 0 0
0 0 0 0 0 0 0 0 0 0 0 0 0 0 0 0 0 0 0 0 0 0 0 0 0 0 0 0 0 0 0 0 0 0 0 0 0 0 0 0 0 0 0 0
0 0 0 0 0 0 0 0 0 0 0 0 0 0 0 0 0 0 0 0 0 0 0 0 0 0 0 0 0 0 0 0 0 0 0 0 0 0 0 0 0 0 0 0
0 0 0 0 0 0 0 0 0 0 0 0 0 0 0 0 0 0 0 0 0 0 0 0 0 0 0 0 0 0 0 0 0 0 0 0 0 0 0 0 0 0 0 0
0 0 0 0 0 0 0 0 0 0 0 0 0 0 0 0 0 0 0 0 0 0 0 0 0 0 0 0 0 0 0 0 0 0 0 0 0 0 0 0 0 0 0 0
0 0 0 0 0 0 0 0 0 0 0 0 0 0 0 0 0 0 0 0 0 0 0 0 0 0 0 0 0 0 0 0 0 0 0 0 0 0 0 0 0 0 0 0
0 0 0 0 0 0 0 0 0 0 0 0 0 0 0 0 0 0 0 0 0 0 0 0 0 0 0 0 0 0 0 0 0 0 0 0 0 0 0 0 0 0 0 0
0 0 0 0 0 0 0 0 0 0 0 0 0 0 0 0 0 0 0 0 0 0 0 0 0 0 0 0 0 0 0 0 0 0 0 0 0 0 0 0 0 0 0 0
0 0 0 0 0 0 0 0 0 0 0 0 0 0 0 0 0 0 0 0 0 0 0 0 0 0 0 0 0 0 0 0 0 0 0 0 0 0 0 0 0 0 0 0
Wind_Speed
7 6 8 8 10 9 8 9 9 7 2 4 8 10 8 6 6 7 6 6 6 6 4 5 5 5 4 4 4 4 4 3 3 3 2 2 2 2 1 2 2 2 2 2
6 10 11 9 9 10 11 12 10 7 3 4 7 11 8 7 8 7 7 6 6 5 5 5 5 5 5 5 4 4 4 4 4 3 3 2 2 2 2 2 2 2 2 2
12 5 6 11 11 10 11 10 8 8 7 6 7 9 7 6 7 6 5 5 5 5 5 6 5 4 4 5 5 4 4 4 4 4 3 3 1 2 2 1 1 1 2 2
10 11 9 9 10 10 9 5 7 7 5 4 3 6 5 5 7 7 6 5 5 5 4 5 5 5 5 5 5 4 4 4 4 4 4 5 3 3 3 2 2 2 2 2
6 6 8 10 9 8 6 3 5 5 5 6 6 6 7 4 6 7 6 5 4 5 5 5 5 5 5 5 5 5 5 4 4 5 5 5 4 2 2 3 3 3 2 2
9 5 5 6 5 6 4 4 5 4 3 7 8 8 7 5 6 5 5 4 3 3 4 4 4 4 4 5 5 5 5 4 4 5 5 6 5 4 4 4 4 3 2 2
8 10 7 5 6 5 5 3 2 3 5 7 6 7 7 3 4 5 5 5 3 3 3 4 4 4 5 5 5 5 5 4 4 5 5 5 5 5 6 5 5 4 3 2
6 7 8 6 7 5 8 7 5 4 5 3 4 7 4 2 4 3 3 4 3 3 2 3 4 4 4 6 6 6 5 5 5 6 5 5 5 4 4 5 5 5 4 3
4 5 2 4 4 5 6 8 5 4 5 5 5 4 3 3 4 3 3 3 3 2 2 2 2 3 3 5 5 6 6 5 5 5 5 4 4 5 5 5 4 4 3 3
3 4 3 3 3 5 4 3 2 4 4 6 6 6 4 5 4 4 3 2 1 2 2 2 2 2 1 3 4 4 5 5 5 5 5 4 4 4 4 5 5 4 4 4
4 4 3 4 7 7 5 5 5 4 4 4 4 3 1 4 5 4 4 3 2 2 2 2 2 2 2 2 3 3 4 4 4 4 4 4 4 4 4 4 5 4 4 4
3 3 5 6 4 4 6 6 6 4 5 4 4 4 3 5 4 4 4 3 2 2 2 2 2 2 2 2 2 2 3 3 4 4 4 3 4 4 4 4 4 4 4 4
2 2 3 3 3 3 4 6 6 5 3 4 4 5 1 3 4 3 3 2 2 2 2 2 2 2 2 1 1 2 2 3 3 4 4 3 3 4 4 4 4 4 4 4
4 4 6 7 3 3 6 8 8 7 5 6 8 7 4 2 1 2 2 2 2 2 2 2 2 1 1 1 1 1 1 2 3 4 4 4 4 4 4 3 4 4 4 4
3 6 8 11 9 7 8 10 11 12 11 9 9 9 7 4 1 1 1 2 2 2 2 1 1 1 1 1 1 1 1 1 2 3 4 4 3 3 3 3 3 3 3 4
3 5 6 9 10 10 12 12 13 14 14 13 12 11 4 2 1 1 1 1 2 1 1 1 1 1 1 1 1 1 1 1 2 3 3 3 3 3 3 3 3 3 2 2
4 4 4 7 6 6 12 11 12 11 10 10 12 8 2 1 1 0 1 1 1 1 1 1 1 0 1 1 1 1 1 1 2 2 2 3 3 3 3 3 3 3 2 2
6 6 4 4 3 11 7 2 5 7 8 7 6 3 3 2 1 1 2 2 1 2 2 2 1 1 0 1 1 2 2 2 2 2 2 2 3 3 2 2 2 2 2 2
7 7 4 4 6 9 5 1 2 4 7 4 5 3 2 1 1 1 3 3 1 1 1 1 1 1 1 1 2 2 2 2 2 1 2 2 2 2 2 2 2 2 2 2
5 6 5 5 6 7 2 2 3 2 5 2 2 3 3 2 2 2 1 2 2 2 2 2 2 2 2 1 2 3 2 2 1 1 1 1 2 2 2 2 2 2 2 2
2 4 7 8 7 5 1 3 2 2 4 3 2 2 3 2 1 2 2 2 2 2 2 2 2 2 2 2 2 2 2 1 1 1 1 1 1 1 2 1 1 2 1 1
5 4 5 5 6 6 2 1 1 2 2 2 3 3 3 3 3 3 3 2 2 2 2 2 2 2 2 2 2 2 1 1 1 1 1 1 0 1 1 1 1 1 2 1
4 4 4 3 3 1 1 1 1 2 2 3 3 4 4 4 3 3 2 2 2 2 2 2 2 2 2 2 2 1 1 1 1 1 1 1 1 0 1 1 1 1 1 1
2 2 2 2 1 3 4 4 5 5 4 4 4 4 4 4 3 2 2 2 2 2 2 2 2 2 2 2 2 1 1 1 1 1 1 0 0 0 0 1 1 1 2 2
3 3 3 3 2 2 4 5 5 5 6 6 6 5 4 3 3 2 2 3 3 3 2 2 2 2 2 2 2 2 2 1 1 1 1 1 0 0 0 0 1 1 2 3
3 3 3 3 2 1 3 5 5 5 5 5 5 5 5 4 3 3 3 3 3 3 3 3 3 2 2 2 2 2 2 1 1 1 1 1 1 0 0 0 1 3 3 4
Wind_Direction
198 218 221 221 224 246 268 275 277 280 279 266 260 267 265 252 241 240 233 218 211 205 192 172 174 171 167 162 156 163 163 159 143 145 154 162 162 147 124 112 104 116 113 106
218 227 233 241 244 246 254 266 274 284 274 269 275 274 265 248 237 232 227 220 209 198 181 175 170 166 168 171 169 167 161 158 152 159 165 172 176 157 143 133 123 115 114 115
221 223 218 234 242 249 249 249 261 276 298 270 279 283 241 235 230 221 220 218 197 195 186 178 173 170 168 175 174 174 169 161 156 162 156 140 126 123 130 146 148 138 124 119
234 235 237 239 239 238 253 250 259 269 281 272 227 284 253 225 220 209 208 208 193 187 186 180 177 171 175 177 169 174 174 168 165 162 157 157 161 169 180 167 157 146 130 126
230 215 229 239 240 236 249 277 263 259 259 273 241 255 267 221 223 206 196 191 182 179 182 183 183 179 176 171 169 173 176 172 166 166 170 168 169 175 156 147 153 151 137 132
245 247 240 238 241 238 248 258 251 249 249 257 223 220 263 217 210 187 179 173 174 174 175 178 178 171 170 167 169 167 172 177 173 175 178 176 170 165 163 162 166 162 152 148
235 232 223 229 232 215 215 205 232 226 218 240 201 215 245 219 167 166 166 165 165 162 166 172 174 174 170 167 171 173 174 180 176 175 179 180 177 173 177 174 171 168 162 162
234 235 202 203 216 206 208 208 205 222 235 258 207 227 238 125 98 108 124 137 142 151 167 171 177 175 170 168 172 174 180 182 177 176 180 179 178 178 179 177 173 175 173 171
246 244 194 193 207 217 209 218 236 274 289 276 245 222 205 137 122 118 110 109 124 142 141 138 145 157 167 170 174 179 183 183 181 179 176 175 177 176 173 171 171 170 163 159
287 273 234 193 204 230 231 235 208 215 235 250 251 233 220 176 174 154 139 123 122 124 123 127 129 125 143 169 172 171 171 174 173 171 174 174 174 170 163 161 165 168 168 165
254 249 234 189 206 210 203 218 220 221 234 236 258 256 110 153 154 154 149 136 126 121 132 118 113 114 115 134 153 160 165 167 166 167 171 167 168 168 165 169 173 171 167 167
245 249 244 231 225 232 227 224 209 210 242 238 258 265 67 96 101 101 101 84 72 89 98 99 108 114 114 123 142 160 167 169 167 164 165 163 162 161 170 176 178 170 169 172
249 232 253 245 227 209 230 229 232 251 265 240 236 250 131 90 92 87 95 90 72 78 79 80 91 99 112 123 140 152 156 165 165 160 159 161 160 163 175 177 174 171 174 175
268 240 231 234 241 207 238 243 235 222 226 243 237 254 265 270 122 109 110 112 90 80 78 72 72 76 80 78 90 97 119 152 164 159 160 168 173 172 172 161 165 171 172 174
237 245 255 264 273 263 250 243 231 226 226 233 251 256 261 258 186 106 91 93 94 90 81 70 72 78 89 84 85 83 75 119 151 153 161 172 168 156 152 154 156 161 164 176
247 253 267 271 264 266 263 248 240 237 235 243 258 266 268 290 36 65 72 80 86 76 59 55 49 55 110 112 97 101 106 127 137 145 149 145 145 145 149 157 150 143 146 150
223 232 250 263 264 279 256 237 231 235 234 234 245 250 246 282 316 23 51 72 57 41 40 25 348 283 175 150 139 141 130 109 104 123 131 130 133 134 143 147 143 149 156 153
227 226 232 257 265 243 248 207 222 228 242 239 239 233 218 201 305 52 86 81 48 38 24 1 337 338 27 102 108 113 108 106 107 120 129 125 124 127 132 139 156 165 165 166
218 208 213 223 244 262 260 270 267 235 249 244 229 210 182 141 12 60 66 65 59 47 21 353 357 7 23 77 109 109 107 106 100 105 125 137 138 142 148 156 173 177 169 176
226 212 216 229 238 248 273 324 299 235 251 282 225 195 185 162 210 225 56 56 54 47 38 31 32 35 37 41 86 97 98 96 95 95 117 144 152 157 169 177 180 181 177 184
215 225 224 233 238 257 332 325 29 190 257 327 307 191 171 186 193 139 82 65 65 62 48 39 46 46 33 34 80 91 83 75 71 63 69 117 140 157 171 174 163 160 169 175
200 207 219 224 233 252 1 32 184 247 340 4 33 74 88 88 86 89 82 73 61 59 59 51 48 38 29 35 71 79 55 36 67 70 56 58 132 159 146 149 157 169 174 180
217 227 234 212 224 340 26 74 15 37 40 42 55 62 77 81 79 77 75 68 52 48 55 55 57 42 27 26 56 62 354 40 60 67 59 25 15 121 166 165 170 185 189 201
288 323 301 277 310 1 14 29 44 49 52 55 61 64 70 71 60 49 50 52 48 45 45 47 49 42 24 23 38 32 360 30 64 56 18 6 335 309 186 182 188 196 208 217
310 319 304 286 305 2 21 27 35 44 48 53 56 58 60 63 49 40 39 39 40 36 28 35 37 30 12 11 17 17 11 28 47 39 353 316 282 234 248 248 238 235 230 224
317 297 281 278 325 355 10 22 30 41 43 46 52 48 43 47 43 40 37 32 34 30 25 21 17 10 357 0 2 6 3 15 41 10 340 320 314 314 282 292 336 327 294 295